Weather Roundup
Issued by NWS

Home | Current Version | Previous Version | Graphics & Text | Print | Product List | Glossary Off
Versions: 1 2 3 4 5 6 7 8 9 10 11 12 13 14 15 16 17 18 19 20 21 22 23 24 25 26 27 28 29 30 31 32 33 34 35 36 37 38 39 40 41 42 43 44 45 46 47 48 49 50

000
NZUS93 KARX 090710
HRRWXR

CURRENT HOURLY OBSERVATIONS ACROSS
MUCH OF THE UPPER MISSISSIPPI VALLEY
NATIONAL WEATHER SERVICE LA CROSSE WI
100 AM CST FRI DEC 09 2016


...SOUTHEAST MINNESOTA...


CITY           SKY/WX    TMP DP  RH WIND       PRES   REMARKS
ROCHESTER      FLURRIES  15  11  83 NW15      30.47S WCI   0
ROCHESTER/MAYO CLOUDY    15  13  88 NW14      30.49S WCI   1
WINONA         FLURRIES  21  18  86 NW8       30.50S WCI  12
AUSTIN         FLURRIES  14  10  85 NW9       30.50S WCI   2
ALBERT LEA     FLURRIES  18  12  79 W10G16    30.51S WCI   6
DODGE CENTER   FLURRIES  12  10  92 NW12      30.48S WCI  -2
PRESTON        FLURRIES  14  10  85 NW12      30.47S WCI   0
OWATONNA       FLURRIES  14   9  79 NW12      30.52R WCI   0
FARIBAULT      FLURRIES  14  10  85 W10       30.52S WCI   1
$$

...ELSEWHERE IN MINNESOTA...


CITY           SKY/WX    TMP DP  RH WIND       PRES   REMARKS
MINNEAPOLIS    CLOUDY    17  10  74 NW13      30.53R WCI   4
INTNL FALLS    CLOUDY    10   4  76 NW8       30.45R WCI  -2
DULUTH         FLURRIES  11   5  77 NW10      30.41R WCI  -3
RED WING       FLURRIES  19  12  73 NW7       30.50S WCI  10
REDWOOD FALLS  CLEAR      6   1  80 NW10      30.58S WCI  -9
MANKATO        FLURRIES  12   8  84 NW9       30.56  WCI   0
WORTHINGTON    CLEAR      5   2  87 W7        30.56R WCI  -7
FAIRMONT       FLURRIES  11   6  81 NW14      30.56S WCI  -5
$$

...SOUTHWEST WISCONSIN...


CITY           SKY/WX    TMP DP  RH WIND       PRES   REMARKS
LA CROSSE      CLOUDY    24  15  68 NW13      30.48R WCI  12
PRAIRIE DU CHI CLOUDY    21  14  73 W7        30.50S WCI  12
BOSCOBEL       CLOUDY    23  16  74 W7        30.48S WCI  15
LONE ROCK      CLOUDY    23  16  74 W13       30.46R WCI  11
PLATTEVILLE    CLOUDY    20  17  87 W10       30.45F WCI   9
FORT MC COY    FLURRIES  22  17  83 W6        30.46S WCI  14
CAMP DOUGLAS   FLURRIES  22  17  81 W9        30.42R WCI  12
MAUSTON-NEW LI FLURRIES  23  18  80 NW7       30.42R WCI  14
VIROQUA        CLOUDY    20  16  86 W7        30.43R WCI  11
WIS DELLS      FLURRIES  22  17  80 W12       30.41S WCI  11
$$

...ELSEWHERE IN WISCONSIN...


CITY           SKY/WX    TMP DP  RH WIND       PRES   REMARKS
MILWAUKEE      MOCLDY    24  15  68 NW10      30.38R WCI  14
MADISON        CLOUDY    22  17  81 W8        30.41R WCI  12
GREEN BAY      CLEAR     24  16  71 W12       30.35S WCI  13
EAU CLAIRE     CLEAR     17  11  77 NW8       30.46R WCI   7
BLACK RVR FLS  FLURRIES  22  15  72 NW7       30.45R WCI  14
MEDFORD        CLOUDY    18  12  78 NW7       30.35R WCI   9
WAUSAU         FLURRIES  18  14  84 W8        30.35R WCI   8
WIS RAPIDS     CLEAR     18  12  77 W7        30.40S WCI   9
MARSHFIELD     CLOUDY    17  10  74 W8        30.37R WCI   7
RICE LAKE      CLEAR     15  10  78 W9        30.47R WCI   4
$$

...NORTHEAST IOWA...


CITY           SKY/WX    TMP DP  RH WIND       PRES   REMARKS
WATERLOO       PTCLDY    16   8  71 W10       30.53S WCI   4
DUBUQUE        CLOUDY    17  12  80 NW12      30.47R WCI   4
DECORAH        FLURRIES  18  14  86 NW10      30.47R WCI   6
MASON CITY     CLOUDY    14   8  77 NW13      30.55R WCI   0
CHARLES CITY   CLOUDY    16  10  79 NW13      30.52R WCI   2
OELWEIN        CLOUDY    16  12  86 W14       30.50S WCI   1
$$

...ELSEWHERE IN IOWA...


CITY           SKY/WX    TMP DP  RH WIND       PRES   REMARKS
DES MOINES     PTCLDY    15   8  73 NW12      30.59S WCI   2
IOWA CITY      CLOUDY    21  12  68 NW9G18    30.56R WCI  11
FORT DODGE     CLOUDY    10   3  72 W3        30.58R
MARSHALLTOWN   CLOUDY    17  11  77 N14       30.55S WCI   3
CEDAR RAPIDS   FLURRIES  18  15  88 NW16      30.52S WCI   3
$$

...NORTHERN ILLINOIS...


CITY           SKY/WX    TMP DP  RH WIND       PRES   REMARKS
CHICAGO-OHARE  PTCLDY    21  16  81 W13       30.41S WCI   9
CHICAGO-MIDWAY PTCLDY    22  15  75 W10       30.42S WCI  11
MOLINE         CLOUDY    22  11  62 NW12      30.51F WCI  10
ROCKFORD       FLURRIES  22  16  78 W8        30.46S WCI  12
PEORIA         CLOUDY    22  15  75 NW9       30.52S WCI  12
$$

NOTE: "FAIR" INDICATES FEW OR NO CLOUDS BELOW 12,000 FEET WITH NO
SIGNIFICANT WEATHER AND/OR OBSTRUCTIONS TO VISIBILITY. WIND
SPEEDS ARE IN MILES-PER-HOUR.




USA.gov is the U.S. government's official web portal to all federal, state and local government web resources and services.